www.pogodaiklimat.ru

Погода и климат >> Архив погоды >> Гана >> Кофоридуа


ПОГОДА в Кофоридуа

  • Прогноз погоды в Кофоридуа
  • Монитор погоды в Кофоридуа

АРХИВ ПОГОДЫ в Кофоридуа

Время (UTC), дата Ветер
(напр.,м/с)
 
Видим.   Явления Облачность Т
(С)
Тd
(С)
f
(%)
Тe
(С)
Тes
(С)
Комфортность P
(гПа)
Po
(гПа)
Тmin
(С)
Tmax
(С)
R
(мм)
R24
(мм)
S
(см)
21 19.03 Ю 1 12 км {гроза, дождь} 9/9 360 м
[Sc]
+29.0 +24.8 78 +41 +41 опасность
перегрева
1011.1 992.2
03 20.03 штиль 0 12 км 4/4 360 м
[Sc]
+26.0 +25.5 97 +38 +38 очень
душно
1014.4 995.2
06 20.03 штиль 0 9000 м дымка 4/4 360 м
[Sc]
+25.7 +24.2 91 +36 +36 очень
душно
1010.1 991.0 +25.0 1
09 20.03 ЮЗ 1 14 км 1/1 480 м
[Cu med, cong Ci fib]
+29.5 +24.5 75 +42 +54 опасность
перегрева
1012.0 993.1
12 20.03 ЮЗ 1 14 км 6/6 480 м
[Cu med, cong Ci fib]
+33.2 +24.8 61 +46 +57 опасность
перегрева
1009.9 991.3
15 20.03 СЗ 1 16 км гроза без осадков 6/5 360 м
[Cb cap Ci fib]
+29.6 +22.1 64 +38 +44 очень
душно
1007.0 988.2
18 20.03 ЮЗ 1 16 км {гроза} 8/6 360 м
[Cb cap Ci fib]
+32.2 +25.1 66 +46 +46 опасность
перегрева
1006.7 988.1 +34.4
21 20.03 Ю 1 14 км 3/0
[Ci fib]
+28.9 +25.0 80 +42 +42 опасность
перегрева
1010.2 991.3
06 21.03 штиль 0 12 км 3/3 360 м
[Sc]
+25.7 +24.3 92 +36 +36 очень
душно
1009.4 990.3 +25.0
09 21.03 ЮЗ 1 14 км 3/3 480 м
[Cu med, cong]
+30.0 +24.6 73 +43 +52 опасность
перегрева
1011.5 992.6
12 21.03 ЮЗ 1 16 км 4/4 500 м
[Cu med, cong Ci]
+34.0 +24.4 57 +46 +63 опасность
перегрева
1009.4 990.8
15 21.03 С 1 16 км 6/6 500 м
[Cb cap]
+33.0 +22.7 55 +43 +48 опасность
перегрева
1005.3 986.7
18 21.03 штиль 0 9000 м гроза без осадков 8/4 330 м
[Cb cap Cs]
+24.8 +23.0 90 +33 +33 очень
душно
1008.1 989.0 +36.5 19
21 21.03 штиль 0 12 км {гроза} 8/8 330 м
[Sc]
+24.5 +23.0 91 +32 +32 очень
душно
1010.7 991.5
06 22.03 В 2 9000 м гроза, ливневой дождь 9/9 330 м
[Cb cap]
+21.5 +20.0 91 +27 +27 душно 1011.5 992.1 +21.0 25
09 22.03 СЗ 1 9000 м слаб. ливневой дождь, в посл. час гроза 9/9 330 м
[Sc]
+23.5 +21.4 88 +30 +31 очень
душно
1012.7 993.4
12 22.03 СЗ 1 16 км {гроза, дождь} 9/6 360 м
[Sc Ac trans]
+27.5 +22.6 75 +36 +42 очень
душно
1010.8 991.8 6
15 22.03 В 3 17 км 6/0
[Ac trans Ci sp]
+32.4 +21.9 54 +41 +48 опасность
перегрева
1008.6 989.9
18 22.03 ЮЗ 1 17 км 5/0
[Ac trans]
+29.6 +22.7 66 +39 +39 очень
душно
1008.2 989.4 +32.4 6
21 22.03 штиль 0 13 км 8/3 360 м
[Sc Ac trans]
+26.9 +24.2 85 +37 +37 очень
душно
1011.0 992.0
00 23.03 штиль 0 13 км 4/0
[Ac trans]
+25.5 +23.1 87 +34 +34 очень
душно
1012.2 993.0
03 23.03 Ю 1 13 км 9/0
[Ac trans]
+25.0 +23.6 92 +34 +34 очень
душно
1010.6 991.4
06 23.03 штиль 0 13 км 8/8
[Cb calv Ac cuf Ci sp]
+24.5 +22.4 88 +32 +32 очень
душно
1010.8 991.6 6
12 23.03 ЮВ 1 17 км 4/0
[Ac trans Ci fib]
+33.4 +21.8 51 +42 +63 опасность
перегрева
1011.4 992.7
18 23.03 Ю 1 17 км в посл. час гроза 4/3 360 м
[Cb cap Ci fib]
+28.0 +23 +23 комфорт 1008.9 990.0 +35.2
21 23.03 штиль 0 13 км ясно +26.5 +23.2 82 +36 +36 очень
душно
1012.0 992.9
00 24.03 штиль 0 12 км 1/1 360 м
[Sc]
+26.1 +23.9 88 +36 +36 очень
душно
1011.5 992.4
03 24.03 штиль 0 12 км 8/4 360 м
[Sc Ac trans]
+25.0 +23.3 90 +33 +33 очень
душно
1009.8 990.7
06 24.03 штиль 0 12 км 9/9 360 м
[Sc]
+24.5 +22.8 90 +32 +32 очень
душно
1010.5 991.3 +23.5
09 24.03 ЮЗ 1 16 км 5/5 480 м
[Cu med, cong]
+28.9 +24.7 78 +41 +48 опасность
перегрева
1012.3 993.4
15 24.03 ЮЗ 1 18 км 5/4 500 м
[Cb cap Ci fib]
+34.5 +24.4 56 +47 +55 опасность
перегрева
1008.3 989.8
18 24.03 ЮВ 1 12 км гроза без осадков 8/5 360 м
[Cb cap Ci sp]
+30.3 +25.1 74 +44 +44 опасность
перегрева
1010.0 991.2 +34.6 0.5
00 25.03 З 1 12 км {гроза, дождь} 9/4 330 м
[Sc Cs]
+23.4 +20.7 85 +31 +31 очень
душно
1014.2 994.9 5
06 25.03 штиль 0 12 км 8/6 330 м
[Sc Ac trans]
+22.6 +21.5 94 +30 +30 очень
душно
1010.9 991.6 +21.9 6
09 25.03 ЮЗ 1 16 км 8/3 360 м
[Sc Ac trans Ci fib]
+27.5 +21.9 72 +36 +42 очень
душно
1013.0 994.0
12 25.03 ЮЗ 1 16 км 8/6 480 м
[Cu med, cong Ac trans]
+31.0 +24.2 67 +43 +51 опасность
перегрева
1012.6 993.8
15 25.03 ЮЗ 2 17 км 5/5 500 м
[Cu med, cong]
+33.5 +24.1 58 +45 +52 опасность
перегрева
1009.1 990.5
18 25.03 ЮЗ 1 17 км 4/1 500 м
[Cb cap Ci sp]
+31.0 +24.2 67 +43 +43 опасность
перегрева
1009.5 990.7 +33.5
21 25.03 Ю 1 13 км 1/1 360 м
[Sc]
+27.5 +24.4 83 +39 +39 очень
душно
1012.8 993.8
00 26.03 штиль 0 13 км 9/9 300 м
[St As trans Ci sp]
+26.5 +24.2 87 +37 +37 очень
душно
1013.3 994.2
03 26.03 штиль 0 13 км 8/8 360 м
[Sc]
+26.5 +24.3 88 +37 +37 очень
душно
1011.5 992.4
06 26.03 штиль 0 13 км 9/9 360 м
[Sc]
+25.4 +24.2 93 +35 +35 очень
душно
1011.3 992.2 +24.9
09 26.03 ЮЗ 1 16 км 6/6 480 м
[Cu med, cong]
+27.0 +24.4 86 +38 +44 очень
душно
1012.9 993.8
12 26.03 ЮВ 1 17 км 3/3 480 м
[Cu med, cong]
+32.8 +24.3 61 +45 +65 опасность
перегрева
1011.1 992.4
15 26.03 З 1 17 км 8/8 500 м
[Cu med, cong]
+35.4 +24.9 55 +49 +51 опасность
перегрева
1008.3 989.8
18 26.03 Ю 1 17 км 1/1 500 м
[Cu med, cong]
+31.5 +21.6 56 +40 +40 очень
душно
1009.7 991.0 +35.4

 

Местоположение метеостанции Кофоридуа (Гана): широта 6.08 долгота -0.25 высота над уровнем моря 167 м.

В архиве по умолчанию представлена погода в Кофоридуа за последнюю неделю. Архивные данные за месяц целиком и за предыдущие месяцы, начиная с января 2011 года, Вы можете получить, выбрав интересующий диапазон дат из раскрывающегося списка и нажав кнопку "Ввод!".


*Определитесь, кто Вы:
робот инопланетянин человек

Внимание! Время в таблицах - всемирное. Для получения местного времени необходимо прибавить поправку, которая равна 1 ч.

Смотрите также архив погоды в соседних городах и на ближайших метеорологических станциях:

Погода в Акюсе (Гана) (41 км)
Погода в Аккра (Гана) (54 км)
Погода в Тема (Гана) (58 км)
Погода в Аким Ода (Гана) (82 км)
Погода в Абетифи (Гана) (86 км)
Погода в Хо (Гана) (98 км)
Погода в Ада (Гана) (103 км)
Погода в Акатзи (Гана) (116 км)
Погода в Солтпонде (Гана) (133 км)
Погода в Кумаси (Гана) (165 км)

Пояснения к столбцам:

Ветер - указаны скорость ветра в м/с - средняя за 10 мин, порывы в срок и между сроками (в фигурных скобках) и направление, откуда дует ветер: С - северный, СВ - северо-восточный, В - восточный, ЮВ - юго-восточный, Ю - южный, ЮЗ - юго-западный, З - западный, СЗ - северо-западный.
Видимость - горизонтальная дальность видимости в метрах или километрах. При видимости от 1 до 10 км при отсутствии осадков обычно наблюдается дымка, при ухудшении видимости до 1 км и менее - туман. В сухую погоду видимость может ухудшаться дымом, пылью или мглою.
Явления - указаны атмосферные явления, наблюдавшиеся в срок или в последний час перед сроком; фигурными скобками обозначены явления, наблюдавшиеся между сроками (за 1-3 часа до срока); квадратными скобками обозначены град или гололедные отложения с указанием их диаметра в мм.
Облачность - указаны через наклонную черту общая и нижняя облачность в баллах и высота нижней границы облаков в метрах; квадратными скобками обозначены формы облаков: Ci - перистые, Cs - перисто-слоистые, Cc - перисто-кучевые, Ac - высококучевые, As - высокослоистые, Sc - слоисто-кучевые, Ns - слоисто-дождевые, Cu - кучевые, Cb - кучево-дождевые. Подробнее классификацию облаков см. в Атласе облаков (PDF).
T - Температура воздуха - температура, измеренная на высоте 2 м над землей.
Td - Температура точки росы - температура, при понижении до которой содержащийся в воздухе водяной пар достигнет насыщения.
f - Относительная влажность воздуха - влажноcть воздуха, измеренная на высоте 2 м над землей.
Te - Эффективная температура - температура, которую ощущает одетый по сезону человек в тени. Характеристика душности погоды. При расчете учитывается влияние влажности воздуха и скорости ветра на теплоощущения человека.
Tes - Эффективная температура на солнце - температура, которую ощущает человек, с поправкой на солнечный нагрев. Характеристика знойности погоды. Зависит от высоты солнца над горизонтом, облачности и скорости ветра. Ночью, в пасмурную погоду, а также при ветре 12 м/с и более поправка равна нулю.
P - Атмосферное давление - приведенное к уровню моря атмосферное давление.
Po - Атмосферное давление - измеренное на уровне метеостанции атмосферное давление.
Tmin - Минимальная температура - минимум температуры воздуха на высоте 2 м над землей.
Tmax - Максимальная температура - максимум температуры воздуха на высоте 2 м над землей.
R - Количество осадков - Количество выпавших осадков за период времени, мм. При наведении курсора мыши на число - период времени, за который выпало указанное количество осадков.
R24 - Количество осадков - Количество выпавших осадков за 24 часа, мм.
S - Снежный покров - Высота снежного покрова, см. При наведении курсора мыши на число - состояние снежного покрова и степень покрытия местности в баллах.